TimeMDT,TemperatureF,Dew PointF,Humidity,Sea Level PressureIn,VisibilityMPH,Wind Direction,Wind SpeedMPH,Gust SpeedMPH,PrecipitationIn,Events,Conditions,WindDirDegrees,DateUTC
12:54 AM,37.9,36.0,93,30.10,10.0,ESE,5.8,-,N/A,,Clear,110,2013-09-20 06:54:00
1:54 AM,39.9,35.1,83,30.08,10.0,SE,10.4,-,N/A,,Clear,130,2013-09-20 07:54:00
2:54 AM,42.1,35.1,76,30.06,10.0,SE,9.2,-,N/A,,Clear,140,2013-09-20 08:54:00
3:54 AM,39.0,34.0,82,30.05,10.0,ESE,9.2,-,N/A,,Clear,110,2013-09-20 09:54:00
4:54 AM,37.9,34.0,86,30.04,10.0,SE,8.1,-,N/A,,Clear,130,2013-09-20 10:54:00
5:54 AM,37.0,33.1,86,30.03,10.0,SE,9.2,-,N/A,,Clear,130,2013-09-20 11:54:00
6:54 AM,37.0,33.1,86,30.02,10.0,ESE,6.9,-,N/A,,Clear,120,2013-09-20 12:54:00
7:54 AM,42.1,34.0,73,30.01,10.0,ESE,5.8,-,N/A,,Clear,120,2013-09-20 13:54:00
8:54 AM,50.0,36.0,59,30.00,10.0,ESE,5.8,-,N/A,,Clear,120,2013-09-20 14:54:00
9:54 AM,59.0,37.0,44,29.98,10.0,ESE,4.6,-,N/A,,Clear,110,2013-09-20 15:54:00
10:54 AM,64.0,34.0,33,29.95,10.0,Calm,Calm,-,N/A,,Clear,0,2013-09-20 16:54:00
11:54 AM,69.1,27.0,21,29.91,10.0,WSW,11.5,-,N/A,,Clear,240,2013-09-20 17:54:00
12:54 PM,72.0,28.0,20,29.89,10.0,WSW,16.1,19.6,N/A,,Clear,250,2013-09-20 18:54:00
1:54 PM,73.0,28.9,20,29.86,10.0,WSW,19.6,26.5,N/A,,Clear,240,2013-09-20 19:54:00
2:54 PM,73.9,27.0,18,29.83,10.0,WSW,17.3,-,N/A,,Clear,240,2013-09-20 20:54:00
3:54 PM,73.9,28.0,18,29.81,10.0,SW,10.4,-,N/A,,Clear,230,2013-09-20 21:54:00
4:54 PM,73.9,28.9,19,29.81,10.0,WSW,10.4,-,N/A,,Clear,240,2013-09-20 22:54:00
5:54 PM,72.0,28.9,20,29.80,10.0,SSW,11.5,-,N/A,,Clear,210,2013-09-20 23:54:00
6:54 PM,66.9,32.0,27,29.79,10.0,South,5.8,-,N/A,,Clear,170,2013-09-21 00:54:00
7:54 PM,59.0,36.0,42,29.80,10.0,SE,9.2,-,N/A,,Clear,140,2013-09-21 01:54:00
8:54 PM,53.1,37.0,55,29.79,10.0,SE,9.2,-,N/A,,Clear,130,2013-09-21 02:54:00
9:54 PM,48.0,37.9,68,29.77,10.0,East,6.9,-,N/A,,Clear,100,2013-09-21 03:54:00
10:54 PM,46.9,36.0,66,29.75,10.0,SE,5.8,-,N/A,,Clear,130,2013-09-21 04:54:00
11:54 PM,46.9,35.1,63,29.74,10.0,SE,5.8,-,N/A,,Clear,140,2013-09-21 05:54:00